This demonstration page uses our WeatherBlox Daily Observations layout. Learn more.

Left ArrowRight Arrow

44.8408, -93.29828

Hourly Observations for August 16, 2022

Temp ( °F °C ) Dew Point ( °F °C ) Humidity (%) Winds ( mph kmh ) Pressure ( in mb ) Visibility ( mi km ) Precip ( " mm )
12:53 am 00:53 Mostly Cloudy 67 19.4 62 16.7 84 84 E 3 6 30.12 1020 10 16 0.00 0.00
1:53 am 01:53 Mostly Cloudy 66 18.9 62 16.7 87 87 Calm 30.13 1020 10 16 0.00 0.00
2:53 am 02:53 Mostly Cloudy 67 19.4 62 16.7 84 84 SSE 3 6 30.12 1020 10 16 0.00 0.00
3:53 am 03:53 Mostly Cloudy 67 19.4 62 16.7 84 84 SE 3 6 30.12 1020 10 16 0.00 0.00
4:53 am 04:53 Cloudy 67 19.4 63 17.2 87 87 Calm 30.13 1020 10 16 0.00 0.00
5:53 am 05:53 Cloudy 67 19.4 63 17.2 87 87 SW 5 7 30.13 1020 10 16 0.00 0.00
6:53 am 06:53 Mostly Cloudy 67 19.4 63 17.2 87 87 Calm 30.14 1021 10 16 0.00 0.00
7:53 am 07:53 Partly Cloudy 68 20 63 17.2 84 84 SE 3 6 30.16 1021 10 16 0.00 0.00
8:53 am 08:53 Partly Cloudy 70 21.1 64 17.8 81 81 SE 3 6 30.16 1022 10 16 0.00 0.00
9:53 am 09:53 Mostly Cloudy 73 22.8 63 17.2 71 71 SE 8 13 30.16 1022 10 16 0.00 0.00
10:53 am 10:53 Mostly Cloudy 75 23.9 63 17.2 66 66 SE 5 7 30.16 1022 10 16 0.00 0.00
11:53 am 11:53 Mostly Cloudy 75 23.9 61 16.1 62 62 S 6 9 30.16 1021 10 16 0.00 0.00
12:53 pm 12:53 Mostly Cloudy 76 24.4 61 16.1 60 60 SSE 9 15 30.16 1021 10 16 0.00 0.00
1:53 pm 13:53 Mostly Cloudy 78 25.6 61 16.1 56 56 ESE 5 7 30.14 1021 10 16 0.00 0.00
2:53 pm 14:53 Partly Cloudy 80 26.7 60 15.6 51 51 SSE 9 15 30.12 1020 10 16 0.00 0.00
3:53 pm 15:53 Partly Cloudy 81 27.2 60 15.6 49 49 E 12 19 30.12 1020 10 16 0.00 0.00
4:53 pm 16:53 Mostly Sunny 80 26.7 57 13.9 45 45 S 7 11 30.11 1020 10 16 0.00 0.00
5:53 pm 17:53 Partly Cloudy 79 26.1 56 13.3 45 45 SSE 6 9 30.11 1020 10 16 0.00 0.00
6:53 pm 18:53 Mostly Cloudy 78 25.6 57 13.9 48 48 SSE 6 9 30.12 1020 10 16 0.00 0.00
7:53 pm 19:53 Partly Cloudy 76 24.4 57 13.9 52 52 SSE 6 9 30.12 1020 10 16 0.00 0.00
8:53 pm 20:53 Mostly Clear 75 23.9 56 13.3 51 51 S 6 9 30.12 1020 10 16 0.00 0.00
9:53 pm 21:53 Mostly Cloudy 73 22.8 57 13.9 57 57 SSE 6 9 30.12 1020 10 16 0.00 0.00
10:53 pm 22:53 Mostly Cloudy 73 22.8 58 14.4 59 59 SSE 6 9 30.13 1020 10 16 0.00 0.00
11:53 pm 23:53 Mostly Clear 73 22.8 59 15 61 61 Calm 30.13 1020 10 16 0.00 0.00

Powered by AerisWeather